Wind_Speed
45 47 48 50 51 52 53 54 56 58 59 60 60 61 61 61 61 62 63 64 64 66 67 68 69 71 74 76 78 80 81 82 82 83 83 82 82 81 81 80 79 78
49 51 52 53 53 54 55 57 59 61 62 62 62 62 62 62 63 64 65 66 66 67 69 70 72 74 77 79 81 82 83 83 83 83 83 82 81 80 79 79 78 76
52 54 55 55 55 56 57 60 62 64 64 64 63 63 63 64 65 66 67 68 68 70 71 73 75 78 80 81 82 83 83 83 83 82 82 81 80 79 78 77 76 75
56 57 56 56 56 58 60 63 65 66 65 65 65 65 65 66 67 68 69 70 71 72 74 76 78 80 81 82 83 83 83 83 82 82 81 80 79 78 77 76 75 74
58 58 58 58 58 61 64 66 66 66 65 66 66 67 68 68 70 71 71 72 73 75 77 79 80 82 82 83 83 83 83 82 82 81 80 79 77 76 76 75 74 73
60 60 59 60 61 63 66 67 66 66 67 67 68 69 70 71 72 72 73 74 76 77 79 81 82 83 83 83 83 83 82 82 81 80 79 78 76 75 74 74 73 73
61 61 61 62 63 65 66 67 67 68 68 69 70 70 71 72 73 74 74 76 78 80 81 82 83 83 83 83 83 83 82 81 81 80 78 77 76 75 74 74 75 75
61 61 62 63 64 66 67 68 69 69 70 70 71 72 72 74 75 75 76 78 80 82 83 83 83 84 83 83 82 82 81 81 80 79 77 76 75 75 76 76 77 78
61 62 63 65 66 68 69 70 70 70 70 71 72 73 74 75 75 76 78 80 82 83 83 84 84 84 83 82 81 81 81 80 79 77 76 76 76 77 78 79 80 79
62 64 65 66 68 69 70 70 70 70 71 72 74 75 76 76 76 78 80 82 84 84 84 84 84 83 82 81 81 80 80 79 78 77 76 77 78 79 80 80 79 76
63 64 65 66 68 69 70 70 71 72 73 74 76 76 76 77 78 80 82 84 84 84 84 84 84 82 81 80 80 79 79 78 77 77 77 78 79 80 80 78 74 71
63 63 65 67 68 70 71 71 72 73 75 76 76 76 77 78 80 82 84 84 85 85 85 84 83 81 80 79 78 78 78 77 77 78 78 79 80 79 76 72 69 69
63 65 66 68 69 71 72 73 73 75 76 76 76 76 78 80 82 83 84 85 85 85 84 83 82 80 79 78 77 77 77 78 78 78 79 79 78 74 70 68 68 69
65 66 68 69 71 72 73 73 74 75 75 76 76 77 79 81 83 84 84 85 85 84 83 82 80 79 78 77 77 77 78 78 79 79 79 76 72 68 68 68 68 69
66 68 69 70 71 72 73 73 74 74 75 76 77 79 80 82 83 84 84 84 84 83 82 80 79 78 77 77 77 78 78 79 79 79 75 70 66 66 67 68 69 69
67 69 70 71 72 72 72 73 73 74 76 77 78 80 81 82 83 84 83 83 83 82 80 78 77 77 77 77 78 78 79 79 78 75 69 65 65 66 67 68 69 69
68 70 71 71 72 72 72 72 74 75 76 78 80 81 81 82 83 83 82 82 81 79 78 77 76 76 77 77 78 79 79 78 74 68 64 64 65 66 67 68 69 69
69 70 71 71 71 71 72 73 74 76 78 79 80 81 81 82 82 82 81 81 79 77 77 76 76 76 77 78 78 79 77 73 68 64 63 64 66 66 67 68 68 68
70 70 71 71 71 71 72 74 76 77 79 80 80 81 82 82 82 81 80 79 77 76 76 76 76 77 78 78 79 77 73 67 63 62 63 65 66 67 67 67 67 66
70 70 70 71 71 72 74 75 77 78 79 79 80 81 81 81 80 80 78 76 75 75 75 76 77 78 78 78 77 73 67 63 62 62 64 65 66 67 66 66 66 65
69 70 70 71 71 73 75 76 77 78 78 79 80 80 80 79 78 77 75 74 74 75 75 76 77 78 78 76 72 67 63 62 62 63 64 65 66 66 66 65 65 64
69 69 70 71 73 75 76 76 76 77 79 79 79 79 78 77 75 74 73 74 74 75 75 77 78 78 76 71 67 63 62 62 62 63 65 65 65 65 64 64 64 63
69 70 71 73 74 75 75 76 76 77 78 78 78 77 76 74 73 73 73 74 74 75 76 77 77 75 71 66 63 63 63 63 63 64 65 65 64 64 64 63 62 61
70 71 73 74 75 75 75 76 77 77 77 77 76 74 73 72 72 73 73 74 75 76 76 76 73 70 66 63 63 63 63 63 64 65 65 64 64 63 63 62 61 60
72 73 74 74 75 75 75 76 76 76 75 74 73 72 71 72 72 73 74 75 75 76 75 72 68 65 64 63 63 64 64 64 65 65 64 64 63 63 62 61 60 60
73 74 74 74 75 75 75 75 75 74 73 72 71 71 71 72 73 74 74 75 75 74 71 67 63 63 63 64 64 65 65 65 65 65 64 63 63 62 61 60 59 59
Wind_Direction
290 292 294 294 295 297 298 299 300 301 301 300 300 300 301 301 302 303 304 305 307 308 309 310 310 311 311 310 310 310 309 308 307 305 304 303 302 301 301 300 299 298
291 293 294 294 295 297 298 300 300 300 300 299 299 300 301 301 302 303 305 306 307 309 310 311 311 311 311 311 310 309 308 307 306 304 303 302 302 301 300 300 299 299
291 293 294 295 296 297 299 300 300 299 299 299 299 300 301 301 302 303 304 306 308 310 311 312 312 312 311 311 310 309 307 306 304 303 303 302 301 300 300 300 299 299
290 291 293 294 296 298 299 300 299 299 299 299 300 300 300 301 301 303 305 307 309 311 312 312 312 312 311 310 309 307 306 305 304 303 302 301 301 301 300 301 301 301
288 290 292 294 296 298 299 299 299 298 299 299 300 300 300 300 301 303 305 308 310 311 312 312 312 311 310 309 308 306 305 304 303 302 301 301 301 301 301 302 302 301
288 290 292 295 297 297 298 298 299 299 298 299 299 299 299 300 301 303 306 308 310 311 312 312 311 310 309 308 307 305 304 303 302 302 301 302 302 302 302 302 302 301
287 290 293 295 296 296 297 299 299 298 298 298 298 299 299 300 302 304 307 309 310 311 312 311 310 309 308 307 305 304 303 302 302 302 302 302 302 302 302 302 302 301
289 291 294 295 295 296 297 298 298 298 298 297 298 299 299 300 302 305 307 309 310 311 311 310 309 308 307 305 304 303 303 302 302 302 302 302 303 303 303 303 302 302
290 292 293 294 294 295 296 297 297 297 297 297 298 299 300 301 304 306 308 309 310 311 310 309 308 307 305 304 303 303 302 302 302 303 303 303 303 303 304 304 303 303
290 291 292 293 293 295 296 296 297 297 298 298 299 299 300 302 305 307 308 309 310 309 309 308 307 305 304 303 303 302 303 303 303 303 303 304 304 304 304 304 304 304
290 291 292 293 294 295 296 297 298 298 298 298 299 299 301 303 306 307 308 308 309 308 307 306 305 304 303 302 302 303 303 302 303 303 304 305 305 305 305 305 305 305
292 293 294 295 296 297 297 298 298 298 297 297 298 299 302 304 306 307 307 307 307 307 306 305 304 303 302 302 302 302 302 302 303 304 305 306 306 306 305 305 305 306
294 295 296 296 297 297 297 297 297 296 296 297 298 300 303 305 306 306 306 306 306 305 304 303 303 302 302 302 302 302 302 303 305 305 306 306 306 305 304 305 306 306
295 295 295 296 296 296 296 296 295 295 296 297 299 301 304 305 305 305 305 305 304 304 303 302 302 302 302 302 302 303 304 305 306 306 306 306 305 304 304 306 306 307
294 294 295 295 295 295 295 295 295 295 296 298 300 302 304 304 304 304 304 304 303 302 302 302 302 302 302 302 303 304 305 306 306 305 305 305 304 304 305 306 306 307
293 293 293 294 294 294 294 294 295 295 297 299 301 303 303 303 303 303 303 302 302 302 302 302 302 302 302 303 304 304 305 305 305 305 304 303 303 304 305 306 306 307
292 292 292 293 293 293 294 294 294 296 298 301 302 302 302 302 302 302 302 301 301 301 301 301 301 302 303 303 304 304 304 304 304 303 303 303 303 304 305 306 306 306
290 291 292 292 292 293 293 294 295 298 300 301 302 302 301 302 302 301 301 301 301 300 300 301 301 302 303 303 303 303 303 303 302 302 302 303 303 305 305 305 306 307
290 290 291 291 291 292 293 295 297 299 300 301 301 301 301 301 301 300 300 300 300 300 300 301 302 302 302 302 302 302 302 301 301 302 302 303 304 304 305 305 306 307
289 289 290 290 291 292 294 297 298 299 300 300 300 300 300 300 300 299 299 299 299 300 300 301 302 301 301 301 301 301 300 300 301 301 302 303 303 304 304 305 306 307
288 288 289 290 292 294 296 298 299 299 299 299 299 299 299 299 298 298 298 298 299 300 301 301 301 300 300 300 300 299 299 299 301 301 302 302 303 303 304 306 307 307
287 288 290 292 294 297 298 298 298 298 298 298 298 298 297 297 297 297 297 298 299 300 300 300 299 299 299 298 297 297 298 299 300 301 301 302 302 303 305 306 307 307
287 289 292 295 297 297 297 297 297 297 297 297 297 296 296 296 296 296 297 298 299 299 299 299 298 298 297 296 296 296 298 299 300 300 301 301 302 304 305 306 307 307
290 293 295 296 297 297 296 296 296 296 296 295 295 295 295 295 295 296 297 298 298 298 298 297 296 295 294 295 295 296 297 298 299 300 301 302 303 304 306 306 307 307
293 294 295 296 295 295 295 295 295 295 294 294 294 294 294 295 295 296 297 297 298 297 296 295 294 293 293 295 295 296 297 298 299 300 301 302 303 305 306 306 306 307
294 295 295 294 294 294 294 294 293 293 292 292 293 293 294 295 295 296 297 297 297 296 294 293 292 293 294 294 295 296 296 297 299 301 302 303 304 305 306 306 306 306
Height
5785 5784 5782 5781 5779 5778 5776 5775 5773 5771 5769 5767 5765 5762 5760 5757 5755 5752 5749 5746 5744 5741 5737 5734 5730 5726 5722 5719 5715 5711 5707 5703 5698 5694 5690 5685 5681 5677 5673 5670 5666 5662
5779 5777 5776 5775 5773 5772 5770 5768 5767 5764 5762 5760 5758 5755 5753 5750 5747 5744 5742 5739 5736 5733 5729 5725 5721 5717 5713 5709 5705 5701 5697 5693 5688 5684 5680 5675 5672 5668 5664 5660 5657 5653
5773 5772 5770 5769 5767 5766 5764 5762 5760 5758 5755 5753 5751 5748 5745 5742 5739 5737 5734 5731 5728 5724 5720 5716 5712 5707 5703 5699 5696 5692 5688 5683 5679 5675 5670 5666 5662 5659 5655 5651 5648 5645
5767 5766 5764 5763 5761 5759 5757 5755 5753 5751 5748 5745 5743 5740 5737 5734 5732 5729 5726 5723 5719 5715 5711 5707 5703 5698 5694 5690 5687 5682 5678 5674 5669 5665 5661 5657 5653 5650 5646 5642 5639 5635
5761 5759 5758 5756 5754 5752 5750 5748 5746 5743 5740 5738 5735 5732 5729 5727 5724 5721 5717 5714 5710 5706 5702 5698 5694 5690 5686 5682 5678 5673 5668 5664 5659 5655 5651 5648 5645 5641 5637 5633 5630 5626
5754 5752 5751 5749 5747 5745 5743 5741 5738 5735 5732 5730 5727 5724 5721 5718 5715 5712 5709 5705 5701 5697 5693 5689 5685 5681 5677 5673 5668 5664 5659 5654 5650 5646 5642 5639 5636 5633 5629 5625 5621 5617
5747 5745 5744 5741 5739 5738 5735 5733 5730 5727 5724 5722 5719 5716 5713 5710 5706 5703 5700 5696 5692 5688 5684 5680 5676 5672 5668 5663 5659 5654 5650 5645 5641 5637 5633 5630 5626 5623 5620 5616 5612 5608
5740 5738 5736 5734 5732 5730 5727 5724 5722 5719 5716 5713 5710 5707 5704 5701 5698 5694 5691 5687 5683 5679 5676 5671 5667 5663 5659 5654 5649 5645 5640 5636 5632 5628 5624 5621 5617 5614 5610 5606 5602 5597
5733 5731 5729 5727 5725 5722 5719 5716 5714 5711 5708 5705 5701 5698 5695 5692 5689 5685 5682 5678 5674 5670 5666 5662 5658 5654 5649 5645 5640 5635 5631 5627 5623 5619 5615 5611 5608 5604 5600 5595 5591 5586
5725 5724 5722 5719 5716 5713 5710 5708 5705 5702 5699 5696 5693 5690 5686 5683 5680 5677 5673 5669 5665 5661 5657 5653 5649 5645 5640 5635 5631 5626 5622 5618 5614 5610 5606 5602 5598 5593 5589 5585 5580 5576
5718 5716 5713 5710 5707 5704 5702 5699 5696 5693 5690 5687 5684 5681 5678 5675 5672 5668 5664 5659 5656 5652 5648 5644 5640 5636 5631 5627 5622 5618 5614 5610 5605 5601 5597 5592 5588 5583 5578 5574 5570 5566
5709 5707 5704 5701 5698 5695 5693 5690 5688 5685 5682 5679 5676 5673 5670 5667 5663 5659 5654 5650 5646 5643 5639 5635 5631 5627 5623 5618 5614 5609 5605 5601 5597 5592 5587 5582 5578 5573 5568 5565 5561 5558
5699 5697 5694 5692 5689 5686 5684 5682 5679 5676 5673 5670 5667 5664 5661 5658 5654 5649 5645 5641 5637 5633 5630 5626 5622 5618 5614 5609 5605 5601 5596 5592 5588 5583 5578 5573 5568 5563 5560 5556 5553 5549
5691 5688 5686 5683 5681 5678 5676 5674 5671 5667 5664 5661 5658 5655 5652 5649 5644 5640 5635 5631 5627 5624 5620 5616 5613 5609 5605 5601 5596 5592 5587 5583 5578 5574 5569 5564 5559 5555 5552 5548 5545 5541
5682 5680 5678 5675 5672 5670 5668 5665 5662 5658 5655 5652 5650 5647 5643 5639 5635 5630 5626 5622 5618 5614 5610 5607 5603 5600 5596 5592 5587 5583 5579 5574 5569 5565 5561 5556 5552 5548 5544 5541 5537 5533
5674 5672 5669 5667 5664 5661 5659 5656 5653 5650 5647 5644 5641 5638 5634 5629 5625 5621 5617 5612 5608 5604 5601 5597 5594 5590 5587 5582 5578 5574 5570 5566 5561 5557 5553 5549 5545 5541 5537 5533 5529 5525
5666 5663 5661 5658 5655 5653 5650 5647 5644 5641 5639 5636 5632 5628 5624 5620 5616 5611 5607 5603 5599 5595 5591 5588 5584 5581 5578 5573 5569 5566 5562 5558 5553 5549 5546 5541 5538 5534 5530 5526 5522 5518
5657 5654 5652 5649 5647 5644 5642 5639 5636 5633 5630 5627 5623 5618 5614 5610 5606 5602 5598 5594 5590 5586 5582 5578 5575 5572 5568 5564 5561 5558 5554 5550 5545 5541 5538 5534 5530 5527 5523 5518 5515 5510
5648 5646 5643 5641 5639 5636 5633 5630 5627 5624 5621 5617 5613 5609 5604 5601 5597 5593 5589 5585 5581 5576 5573 5569 5566 5562 5559 5555 5552 5549 5545 5542 5539 5534 5530 5526 5522 5519 5515 5511 5507 5503
5640 5637 5634 5632 5630 5628 5625 5622 5618 5615 5611 5607 5603 5599 5595 5591 5587 5583 5580 5576 5572 5568 5564 5560 5556 5552 5549 5546 5543 5539 5536 5534 5532 5528 5523 5519 5515 5511 5508 5503 5499 5495
5631 5629 5626 5624 5623 5620 5617 5613 5609 5605 5601 5597 5594 5590 5586 5582 5578 5575 5571 5567 5563 5559 5555 5551 5547 5542 5540 5537 5534 5531 5528 5526 5524 5520 5516 5512 5508 5504 5500 5496 5491 5488
5623 5621 5619 5617 5614 5611 5607 5603 5599 5595 5591 5587 5584 5581 5577 5574 5570 5566 5562 5558 5554 5551 5547 5542 5537 5533 5531 5528 5525 5523 5520 5518 5516 5512 5509 5505 5500 5496 5493 5488 5484 5480
5615 5613 5611 5608 5605 5601 5597 5594 5590 5585 5582 5578 5575 5571 5568 5565 5561 5556 5553 5550 5546 5542 5538 5534 5529 5524 5522 5520 5517 5514 5512 5510 5507 5504 5501 5497 5492 5488 5485 5481 5477 5473
5607 5605 5602 5598 5595 5592 5588 5584 5580 5576 5572 5569 5565 5562 5559 5555 5551 5548 5545 5541 5538 5534 5529 5525 5520 5516 5513 5511 5508 5506 5504 5502 5499 5496 5492 5488 5484 5481 5477 5474 5470 5465
5599 5596 5592 5589 5585 5582 5578 5574 5571 5567 5563 5560 5556 5553 5550 5546 5543 5540 5536 5533 5529 5525 5520 5517 5512 5508 5505 5503 5500 5497 5495 5493 5491 5488 5484 5480 5476 5473 5470 5466 5462 5458
5589 5586 5583 5579 5576 5572 5569 5565 5562 5558 5554 5551 5548 5544 5541 5538 5534 5531 5528 5524 5520 5516 5512 5508 5505 5500 5496 5494 5491 5489 5486 5485 5482 5479 5475 5471 5468 5466 5463 5459 5456 5452